IRIDIUM 173 (43925 NORAD) Tracking and Keplerian Element Data

This shows tracking and keplerian element data for the satellite.

Feedback or suggestion? Click here.




ElementValue
Catalog43925
NameIRIDIUM 173
Epoch Orbit31752
Epoch Day34.83017182
Epoch Year2025
RAAN201.8047
Inclination86.3987
Eccentricity0.0002002
Argument of Perigee95.6613
Mean Anonmoly264.4811
Mean Motion14.34217934
Decay Rate6.6E-07
L11 43925U 19002D 25034.83017182 .00000066 00000+0 16506-4 0 9992
L22 43925 86.3987 201.8047 0002002 95.6613 264.4811 14.34217934317524



Live tracking and technical data element details for IRIDIUM 173 (NORAD 43925). IRIDIUM 173 can be tracked NOW for your location showing map with azimuth and elevation plus other details from your city location.







IsCatalogInMostPopularTable: catalog: 43925, numindb: 604
Update: records affected: 1



GetName: 43925 IRIDIUM 173

Hit Count: updated at: Thu, 15 May 2025 19:20:39 GMT